Wind_Speed
20 26 27 28 31 33 32 32 30 28 25 23 22 22 20 19 17 16 17 15 13 13 11 9 9 9 5 5 8 9 9 9 8 7 6 8 7 5 6 5 4 4 6 8 8 10 13 13 12 13 13 13 15 17 13 8 8 10 11 9 10 11 12 14 17 17 13 12 12 12 11 8 10 10 8 8 7 6 5 7 9 8 7 7 7
19 24 24 25 30 32 33 32 30 28 25 23 23 22 21 20 17 15 15 13 13 14 12 11 10 7 5 6 6 8 8 8 9 7 6 8 8 7 7 6 6 5 5 6 8 11 12 11 14 15 13 15 17 16 12 10 9 9 8 9 11 7 7 13 15 15 16 14 12 13 12 11 13 14 11 7 6 6 6 6 8 8 8 7 8
19 23 23 27 32 33 33 31 29 28 25 24 24 22 21 22 19 16 14 13 13 14 12 11 10 8 7 6 6 9 8 8 9 8 7 8 8 8 7 6 7 6 7 8 8 11 12 11 14 16 15 15 15 13 13 12 9 8 7 8 11 6 5 10 13 13 16 15 14 16 14 12 15 15 12 9 6 7 8 7 7 7 9 10 8
19 22 25 29 31 32 32 31 29 28 26 24 25 23 21 22 20 16 15 13 14 14 12 11 11 9 8 7 7 9 9 9 9 8 8 8 8 8 7 6 7 6 6 9 9 9 13 15 15 15 13 13 12 11 12 10 7 9 9 7 10 9 7 10 12 10 13 14 15 16 15 13 15 14 14 12 9 8 8 10 11 11 9 8 8
20 23 28 30 30 31 32 31 29 28 27 25 24 24 21 20 18 16 15 14 14 14 11 10 10 9 8 7 7 9 9 9 9 8 8 8 8 8 7 7 8 6 5 8 10 10 13 15 15 15 12 9 12 12 10 8 5 7 8 5 6 10 9 9 10 6 9 13 11 12 15 13 12 13 15 16 13 10 8 10 14 15 11 7 8
20 25 29 27 28 31 32 32 29 27 27 26 24 23 21 18 17 17 15 14 15 14 12 11 11 9 9 8 7 8 9 8 8 7 7 8 8 8 9 9 8 8 7 6 7 10 12 12 13 14 12 10 11 10 8 9 5 5 8 5 3 8 7 7 10 8 8 10 8 8 12 13 11 11 13 16 16 13 9 8 12 16 14 11 12
20 27 28 26 29 33 32 31 29 26 26 25 23 22 19 17 17 17 16 15 16 16 14 13 11 9 9 8 7 8 9 8 8 8 7 8 8 8 10 10 8 9 10 6 6 9 10 9 9 10 10 9 9 8 8 10 7 5 8 5 3 7 6 4 8 8 7 8 10 11 12 12 13 10 10 14 17 16 14 11 11 14 16 17 17
23 27 26 27 31 32 31 30 29 26 24 24 23 21 19 17 15 16 16 15 15 14 12 12 12 10 8 8 8 10 11 12 12 10 8 8 8 9 11 10 9 11 11 8 9 10 9 9 8 8 9 8 9 10 9 9 8 5 5 4 3 6 6 3 4 6 6 7 9 11 12 12 12 11 10 13 16 18 17 16 14 14 15 18 21
27 26 26 29 32 32 30 28 29 26 23 22 21 19 19 18 15 14 15 14 13 13 11 11 12 10 9 11 12 13 14 13 13 11 10 10 9 10 11 10 10 11 10 10 11 10 9 10 10 9 9 9 9 10 8 7 7 6 6 6 4 5 6 4 4 4 5 7 8 10 11 12 12 12 13 14 16 16 15 15 17 17 16 17 20
24 21 25 29 30 31 31 28 28 26 23 21 20 19 20 20 18 16 16 15 14 13 11 11 11 10 13 15 14 14 14 13 13 13 12 11 10 10 10 9 10 10 9 9 11 10 7 9 9 9 9 9 10 9 8 7 8 8 8 8 7 7 7 7 6 5 5 6 7 8 9 11 13 13 14 16 17 17 16 15 16 16 17 18 19
19 19 24 28 28 29 29 29 28 25 23 22 21 21 20 19 18 17 16 15 15 14 14 15 14 14 16 16 14 14 14 13 14 14 13 13 12 11 10 8 8 8 7 6 8 8 5 5 6 7 8 9 9 9 8 7 8 9 10 9 8 7 8 8 8 8 8 9 9 8 9 10 12 13 14 16 16 17 19 19 18 18 19 19 20
17 17 21 25 26 25 24 26 27 25 24 25 24 23 23 22 20 19 18 18 17 16 17 18 16 16 16 15 14 15 15 13 15 15 14 14 12 12 11 9 7 7 5 4 4 5 4 4 5 6 6 6 6 7 7 6 8 10 11 11 10 9 9 9 10 10 11 12 12 12 12 12 13 14 15 16 16 17 18 18 19 20 21 23 24
18 18 17 19 23 23 23 25 29 29 30 30 28 28 28 27 26 24 24 23 22 20 20 18 17 16 15 14 13 15 15 14 15 16 15 14 13 13 13 11 9 6 5 4 4 3 4 4 5 6 6 5 5 5 4 5 7 9 11 12 13 12 11 11 11 12 12 13 15 15 15 16 16 17 17 17 18 19 20 20 19 19 19 21 22
20 21 19 19 21 23 25 28 30 31 32 33 32 30 29 28 27 26 26 24 21 20 19 18 16 15 13 11 11 13 14 14 15 16 15 14 14 14 13 12 11 9 6 4 4 4 3 5 7 8 8 8 7 5 6 8 10 11 12 13 13 14 13 13 13 14 15 16 18 18 18 19 19 20 20 20 20 21 22 23 22 21 22 22 23
22 22 22 22 22 23 24 26 27 28 30 31 30 29 27 25 25 24 21 18 16 15 15 16 15 14 11 9 8 9 11 12 14 15 16 16 14 13 12 10 8 7 5 3 5 6 6 7 10 10 9 9 9 8 8 11 12 14 14 14 15 16 16 17 17 17 18 20 21 22 21 21 22 23 23 23 23 23 24 24 23 23 24 25 26
19 20 21 22 22 22 22 23 23 24 26 27 26 25 24 22 22 21 18 15 14 13 13 13 14 14 12 8 6 6 7 8 10 13 16 17 16 15 13 10 6 4 4 5 7 10 10 8 9 10 9 10 11 10 10 11 13 15 15 16 19 20 20 19 19 20 21 22 22 22 21 20 21 23 24 24 24 24 25 25 25 24 25 26 27
12 12 13 14 16 19 21 22 20 20 22 22 21 21 20 18 17 15 14 14 14 13 12 11 12 13 12 11 9 8 7 7 9 11 12 13 13 14 14 12 9 7 8 9 13 16 15 12 10 11 12 14 15 14 13 14 15 15 17 19 21 22 21 21 21 22 22 22 22 22 22 21 21 23 24 24 25 25 26 28 28 27 27 29 30
10 8 9 9 9 12 15 18 19 19 20 20 20 20 19 16 13 11 10 11 12 12 12 11 11 12 12 12 12 11 10 10 10 11 11 10 12 13 14 15 15 13 12 14 17 18 17 15 15 15 15 17 18 17 17 17 17 17 17 18 18 18 18 19 20 20 20 20 21 21 22 22 22 23 24 25 25 26 27 29 28 28 29 31 31
14 12 11 11 10 10 11 13 14 14 15 15 15 15 14 14 13 10 7 7 9 9 9 9 10 10 10 11 12 12 12 11 10 10 10 11 12 13 15 17 17 16 15 15 14 13 14 16 16 17 17 18 18 18 18 18 18 17 16 15 14 15 16 16 18 19 20 20 21 22 23 23 24 25 26 26 26 27 28 29 28 29 31 32 32
15 15 14 13 13 13 13 12 13 12 12 12 12 11 10 9 8 6 6 6 6 5 6 7 8 8 9 10 12 12 13 13 12 10 11 14 16 17 19 20 20 20 19 17 15 14 16 18 17 18 18 18 18 18 17 16 16 16 16 16 17 18 19 20 20 22 23 24 24 25 25 26 26 27 28 28 29 30 31 31 29 28 29 31 32
15 14 14 14 14 15 15 16 16 15 14 13 12 12 10 9 8 7 7 7 6 5 5 6 7 7 8 9 9 10 11 11 11 11 13 15 17 18 19 20 20 21 19 18 18 18 18 18 19 20 20 20 19 18 17 17 17 18 19 20 22 23 25 25 25 26 27 28 28 28 28 28 28 28 28 29 31 32 32 32 29 27 28 31 33
15 15 15 15 15 15 15 15 16 15 15 14 13 12 11 10 9 8 7 7 7 6 6 6 6 6 7 7 7 7 7 8 9 10 12 13 14 15 16 16 17 18 17 17 19 19 19 20 21 22 23 23 22 21 22 22 23 24 24 25 27 28 30 30 30 30 31 31 31 31 31 31 31 30 29 29 30 30 30 30 29 29 31 32 33
14 15 15 14 14 14 13 13 13 13 13 12 12 11 11 10 10 10 9 6 5 6 5 5 4 3 3 4 4 5 5 6 7 8 10 11 12 13 13 13 14 14 15 17 19 19 20 22 23 23 24 24 24 24 24 24 25 25 25 25 27 28 29 30 30 30 30 30 30 31 31 31 32 32 32 31 31 31 30 30 31 32 32 32 31
11 12 14 14 13 11 11 11 11 11 11 10 10 10 10 9 9 10 10 8 7 6 6 5 5 4 3 2 3 4 4 5 7 10 11 11 11 11 12 12 13 13 14 15 17 18 20 21 21 21 21 21 22 22 21 21 22 21 21 21 22 23 24 24 23 23 24 25 25 25 25 24 25 26 26 26 27 29 31 32 32 33 33 31 28
10 10 12 14 14 12 11 11 11 11 10 10 10 10 11 10 10 10 10 8 7 7 7 6 6 5 5 3 2 5 7 6 7 8 8 8 8 9 10 10 11 11 12 12 13 14 15 15 16 16 17 17 18 18 18 18 18 17 16 16 16 15 15 15 16 17 18 18 18 18 18 18 18 19 20 21 23 26 29 30 31 31 32 30 25
15 14 13 13 13 12 11 12 12 12 11 12 12 11 11 12 11 11 11 11 10 9 8 7 7 6 6 4 2 1 2 6 8 5 6 7 6 6 7 7 7 9 10 11 11 11 12 12 12 13 13 13 12 12 12 11 11 10 10 10 10 11 12 13 15 15 14 14 14 15 16 18 19 20 20 21 23 24 25 27 27 28 28 27 23
18 18 17 15 13 12 11 10 9 9 8 9 9 8 8 9 10 10 10 11 11 10 11 11 11 10 9 7 4 3 7 8 9 9 9 10 8 6 7 7 7 8 9 9 9 10 10 10 10 9 8 8 9 9 9 9 9 9 10 11 12 13 13 15 14 12 11 13 13 14 16 19 21 21 22 22 22 21 21 22 23 23 22 21 20
16 16 17 17 16 15 13 12 10 9 8 7 6 5 5 5 6 6 6 6 6 6 7 9 11 11 11 11 7 6 9 10 11 11 9 8 6 5 6 7 6 7 7 7 7 8 8 8 7 7 9 11 11 11 11 11 10 9 10 11 11 11 12 14 13 10 13 15 16 17 18 20 21 21 21 22 21 19 18 19 20 19 18 17 16
14 12 12 13 15 14 13 13 12 12 12 11 9 9 10 9 7 6 5 4 3 2 2 4 7 8 7 9 10 9 9 9 9 9 7 6 5 5 5 5 5 6 6 6 6 7 6 6 8 10 12 11 10 9 8 8 7 7 7 8 9 8 9 11 11 13 16 17 19 21 21 23 23 20 17 18 18 16 16 17 18 17 17 15 14
14 12 10 12 13 11 10 10 10 10 11 12 13 14 14 13 11 10 9 7 5 4 3 3 4 4 3 4 7 8 7 6 6 5 5 5 6 6 6 6 6 6 6 6 6 5 6 8 11 11 10 9 9 7 5 5 5 5 6 7 7 8 10 11 12 16 20 21 23 24 23 24 24 19 15 15 16 15 15 16 16 16 15 13 12
10 11 10 11 11 10 8 9 8 6 6 8 9 11 12 13 13 12 11 11 9 8 7 6 5 3 2 2 2 2 2 2 2 3 4 5 5 6 6 7 7 6 6 5 5 6 9 10 10 8 8 8 9 9 9 8 7 7 7 8 8 10 14 15 16 18 21 22 23 23 23 24 24 19 15 16 17 17 15 15 14 13 12 13 12
7 6 7 8 9 8 8 8 7 6 6 5 6 6 8 10 12 13 13 12 11 11 10 9 9 8 6 4 4 3 3 3 3 3 3 4 4 5 6 7 7 6 5 3 4 6 7 5 3 3 4 5 8 10 11 11 10 8 8 8 8 10 14 17 18 19 21 22 22 22 23 24 23 18 15 16 17 16 15 13 12 11 11 11 11
10 6 6 8 8 7 7 7 6 6 5 6 5 4 5 7 9 10 11 11 11 11 10 9 9 9 7 6 5 4 3 3 3 2 3 3 4 5 6 6 6 5 3 1 1 1 1 2 3 2 3 4 5 7 9 8 8 7 7 8 9 10 12 15 18 19 19 21 22 22 21 20 17 14 12 12 12 12 12 11 9 9 9 9 9
13 9 8 8 8 7 5 5 5 5 4 5 6 5 4 5 6 7 8 8 8 8 9 9 9 9 8 7 5 4 4 4 4 4 4 4 4 5 5 6 5 4 3 3 2 2 3 4 5 6 7 7 5 5 6 6 6 7 8 10 11 12 14 17 19 20 21 21 20 19 16 13 10 8 7 7 7 7 7 7 6 6 6 7 6
11 12 10 8 6 5 4 2 2 4 4 5 5 4 3 4 4 3 4 5 4 5 8 10 11 11 10 9 8 7 7 6 5 5 5 4 4 5 4 5 5 5 5 6 4 2 2 4 4 5 6 5 4 4 4 5 6 7 9 12 14 14 16 17 18 19 19 18 15 12 9 6 4 3 2 2 2 2 2 1 1 1 2 1 1
7 8 8 7 6 4 6 7 2 4 6 6 5 4 2 2 3 3 4 3 2 3 5 8 10 10 10 11 11 10 9 8 6 6 6 5 5 5 4 4 5 5 5 7 7 5 5 7 6 5 5 4 3 2 3 5 6 7 9 13 14 14 13 13 12 14 14 12 9 5 3 4 4 4 3 3 3 3 4 6 8 8 7 6 5
3 4 5 7 4 1 4 7 3 6 7 5 4 4 2 2 3 3 1 4 4 3 4 5 7 8 10 11 11 11 11 9 7 7 7 6 6 6 6 6 6 6 7 8 9 8 9 10 9 7 6 6 5 4 3 3 5 8 10 12 12 12 11 9 7 7 7 6 5 5 6 6 6 6 5 5 6 6 6 9 11 12 10 7 6
4 6 10 11 3 3 3 4 1 5 5 3 1 2 3 3 2 3 2 4 5 5 5 4 3 2 4 5 6 8 9 8 7 6 7 6 6 7 7 8 9 8 9 9 10 9 10 9 8 7 7 7 6 5 5 6 8 9 9 9 10 10 10 8 6 4 3 3 5 5 4 3 3 3 4 6 8 10 9 9 10 12 10 7 6
6 7 12 13 4 4 3 2 1 2 5 4 1 3 4 3 2 3 5 5 4 3 3 1 2 2 1 4 6 5 4 7 6 5 6 6 7 7 9 10 11 11 11 11 10 10 10 10 9 8 7 7 6 5 6 7 9 9 9 10 11 10 9 7 5 4 2 2 3 3 3 3 3 3 5 8 12 12 11 9 9 10 10 8 6
8 7 10 13 7 1 2 3 2 2 3 3 3 2 2 3 3 3 3 3 3 2 2 3 2 2 5 6 5 4 2 5 6 4 5 6 7 8 9 11 13 14 13 12 12 11 11 11 11 10 9 8 6 5 7 10 11 13 14 14 13 12 11 10 7 6 4 3 4 5 4 4 5 7 10 12 12 11 11 10 7 5 5 5 4
7 8 9 11 9 5 4 4 4 3 1 2 3 2 2 3 3 3 2 2 2 1 2 3 3 6 7 5 3 2 3 5 5 5 7 8 9 9 10 11 13 15 15 13 12 12 12 12 12 11 9 8 7 7 8 9 11 13 14 14 13 13 12 11 9 7 7 6 6 6 6 7 8 9 10 12 12 9 7 7 7 6 5 5 4
5 7 8 9 9 7 5 4 5 3 1 3 3 2 2 1 1 2 4 4 3 2 1 2 4 6 8 8 7 6 7 8 7 8 8 8 8 9 9 10 12 15 16 15 14 12 12 12 12 11 10 8 8 9 9 9 9 10 10 10 9 9 8 8 8 8 8 8 7 7 8 9 7 5 6 9 10 7 3 2 5 7 7 5 5
3 4 5 6 6 5 2 2 2 1 3 4 5 5 3 1 0 2 3 3 3 4 3 2 2 4 7 9 8 6 6 8 8 8 7 7 8 9 10 11 12 14 15 15 15 13 12 12 11 10 9 9 9 10 10 9 8 7 5 5 5 5 5 5 6 7 7 7 7 7 7 7 5 3 4 7 8 6 3 1 3 5 6 4 2
3 4 4 4 5 5 2 2 2 4 4 4 5 5 4 2 1 2 2 2 3 3 3 3 3 2 4 6 6 6 6 7 7 7 8 8 8 8 9 10 10 11 12 13 14 14 13 12 11 10 9 9 10 10 9 8 6 4 4 3 3 2 3 3 5 7 8 8 9 9 8 8 6 3 4 6 7 4 2 2 2 2 5 6 5
4 2 4 4 4 5 3 2 4 6 6 4 3 3 3 3 3 3 3 3 3 2 2 3 4 3 3 3 4 4 4 5 5 5 6 6 7 7 8 8 9 9 10 11 11 12 12 11 11 10 9 9 10 9 8 6 4 3 2 2 2 3 3 4 6 8 9 9 10 9 9 10 9 4 3 6 9 6 4 5 5 3 4 7 7
4 3 4 4 3 4 3 2 3 4 3 1 2 3 3 3 3 3 4 4 5 4 4 4 4 4 3 3 3 4 4 4 5 6 6 6 6 6 6 6 7 8 9 9 9 9 10 10 10 9 8 8 8 7 6 3 2 2 2 2 3 4 4 4 5 6 6 6 7 5 5 7 9 7 4 6 8 7 6 7 7 6 5 6 6
5 4 3 4 4 3 3 2 3 3 2 1 2 4 4 3 4 4 4 4 5 5 5 4 4 4 4 3 3 4 4 4 6 6 7 7 7 6 5 6 6 7 8 8 8 8 7 7 7 7 6 5 4 4 3 2 1 2 3 4 4 4 4 4 3 3 3 4 4 2 1 3 5 5 6 7 6 5 5 6 5 5 6 7 6
6 5 4 4 4 4 4 6 6 4 2 1 2 4 4 4 4 4 3 3 4 6 6 5 4 4 4 3 3 3 4 5 5 3 6 7 7 6 6 5 6 7 7 8 8 7 6 6 5 5 4 4 4 4 4 4 4 4 5 5 5 5 5 5 5 5 4 4 3 2 0 1 1 1 5 8 6 3 3 4 3 1 3 5 6
8 7 6 5 5 4 5 5 4 2 2 2 1 3 4 4 4 4 3 3 4 5 5 5 4 4 3 2 2 2 3 4 4 1 6 7 6 6 6 6 6 6 7 7 7 7 7 6 6 6 6 6 5 5 6 6 6 6 7 7 8 7 7 7 6 4 3 3 3 2 2 2 2 2 1 3 3 2 3 4 4 3 2 1 4
9 9 7 5 5 6 6 5 4 5 5 3 2 3 2 3 5 5 4 4 5 5 5 5 5 3 3 3 2 2 2 2 2 2 7 8 5 3 4 5 5 5 5 5 5 6 6 6 6 7 7 7 7 7 7 7 7 7 7 7 7 6 6 5 4 3 3 3 5 6 6 5 4 5 4 5 6 6 6 7 7 7 4 0 3
10 9 7 6 6 7 6 6 6 7 6 4 4 4 4 3 5 6 5 5 6 5 4 5 5 4 4 3 3 3 4 3 2 3 7 9 7 3 2 3 3 3 4 3 3 3 3 4 4 5 5 5 5 6 6 6 6 6 5 5 5 4 4 3 3 4 4 5 6 8 9 9 10 10 10 9 10 9 9 10 11 10 5 1 2
Wind_Direction
206 197 195 190 185 182 179 176 176 177 180 178 174 173 169 164 168 173 173 183 185 165 159 167 182 202 202 166 171 172 167 161 151 153 151 130 131 138 123 129 155 158 164 167 169 168 159 159 170 163 157 164 154 139 134 137 146 166 174 158 146 165 181 184 174 161 166 185 188 206 220 192 186 208 216 213 212 226 220 190 202 226 224 226 236
211 199 193 189 186 182 179 179 177 178 181 177 172 174 169 160 167 178 174 178 176 160 163 178 182 188 173 153 162 162 161 161 153 158 158 148 154 147 130 152 172 156 150 156 158 159 160 164 163 158 160 161 151 141 141 148 153 157 163 165 159 153 169 185 185 173 174 181 183 200 211 185 184 213 234 233 217 229 240 202 201 234 246 247 253
213 203 193 188 187 182 179 179 177 177 179 174 171 173 169 165 171 175 167 170 168 158 170 183 173 172 169 160 162 154 154 164 158 158 171 167 156 145 147 169 168 152 143 140 144 155 157 155 154 157 158 153 148 148 148 151 163 155 142 170 179 165 158 186 195 187 181 182 183 196 209 189 187 217 240 246 245 239 244 241 232 251 268 267 260
207 202 197 190 185 180 179 178 175 176 176 172 170 172 173 174 177 171 162 164 161 159 176 182 168 169 169 164 167 156 158 170 160 165 182 171 155 157 169 169 152 143 143 136 135 149 148 143 149 155 149 144 151 157 156 160 172 161 158 188 200 189 169 170 184 194 189 183 183 198 214 199 186 212 239 247 252 246 241 249 256 268 281 283 280
199 200 201 193 181 178 180 179 175 175 173 170 171 173 177 179 174 165 161 163 159 161 176 174 166 173 170 166 169 159 164 171 162 174 186 171 169 177 171 155 142 142 154 146 143 151 150 149 153 154 150 159 169 168 170 174 158 150 169 207 221 202 190 171 172 191 191 188 193 204 216 212 189 200 230 243 251 252 241 244 255 268 283 285 265
196 199 201 190 180 180 181 179 177 174 171 170 170 173 177 178 169 162 161 164 162 164 173 169 167 175 169 165 170 163 166 170 165 179 187 174 182 184 167 154 144 146 156 152 150 151 149 152 157 158 159 166 167 165 176 178 158 154 183 206 214 192 192 185 182 187 186 193 213 212 212 224 213 200 219 236 245 252 250 243 244 253 265 261 243
194 198 198 188 183 184 181 178 175 172 171 170 169 173 175 169 164 163 162 167 170 169 171 167 161 169 170 164 169 167 167 170 170 181 188 181 182 177 166 163 161 158 153 145 146 144 145 154 157 158 160 156 159 166 179 186 186 185 187 188 172 171 170 179 195 203 204 209 224 220 214 226 226 220 223 227 236 248 249 241 235 241 248 247 244
192 194 191 187 188 185 178 173 169 167 170 170 169 175 173 161 163 170 169 173 173 164 162 162 158 162 165 162 172 178 176 178 179 179 182 181 179 174 169 168 169 160 150 152 154 144 148 160 157 164 170 170 179 181 183 192 195 194 192 174 140 159 164 169 202 212 217 221 227 226 225 226 228 241 244 228 230 242 241 238 246 250 244 242 251
188 190 187 188 189 185 179 173 166 164 168 169 171 177 170 160 162 167 166 167 161 153 157 161 156 156 164 174 185 187 182 183 183 179 176 175 175 174 169 166 166 159 156 164 158 147 158 169 169 183 187 186 196 196 195 198 190 194 212 204 187 180 176 184 211 222 228 234 235 234 238 240 240 248 250 240 240 245 245 248 255 254 247 247 256
185 186 184 184 186 183 179 173 168 169 170 166 171 177 168 160 161 162 164 160 150 149 156 156 154 162 177 187 192 189 186 187 185 182 179 174 170 170 168 166 165 161 162 166 155 149 170 183 184 196 199 199 206 209 212 211 200 204 219 223 219 213 204 202 210 224 237 241 246 247 247 251 253 255 254 254 256 257 257 261 261 254 251 254 258
178 175 177 180 183 181 179 179 179 179 175 170 172 173 167 163 161 158 157 152 145 151 160 163 169 178 185 192 194 188 188 189 186 184 181 175 170 166 164 166 167 164 167 172 161 156 176 209 213 216 221 224 225 229 234 230 219 218 224 231 234 233 234 231 228 232 235 235 240 244 244 252 258 259 258 260 261 260 261 264 266 263 260 258 259
170 167 170 176 177 170 169 179 182 177 174 174 170 166 164 162 159 155 151 148 152 164 169 172 178 181 185 194 195 190 189 189 189 188 183 180 178 169 163 161 161 163 165 165 162 168 191 236 263 258 246 240 241 248 251 244 234 229 228 232 238 245 252 253 252 251 250 249 250 250 250 255 258 256 258 260 258 257 258 259 262 265 265 264 263
170 165 163 165 167 161 155 163 171 171 173 173 169 168 167 163 161 161 159 158 164 172 172 175 180 182 188 192 190 191 192 190 192 191 186 184 182 174 168 162 154 158 171 174 180 203 200 207 243 261 260 261 262 255 252 257 250 241 239 242 249 257 258 255 256 258 260 263 265 265 264 263 262 258 256 257 255 254 256 257 257 258 261 263 264
163 162 160 156 160 165 162 163 169 170 169 169 169 169 168 165 165 168 168 167 172 175 175 178 180 178 183 187 189 196 198 196 197 196 192 189 183 174 169 162 154 149 154 172 197 219 221 218 231 243 249 254 257 247 239 252 262 265 266 267 271 274 273 270 269 268 269 268 266 267 268 269 268 266 263 260 258 257 259 260 259 257 255 257 258
149 152 157 156 158 163 166 167 166 160 158 163 167 168 167 167 168 168 169 170 172 171 173 180 183 180 183 192 200 204 203 200 202 203 203 202 198 190 187 184 172 160 162 202 234 235 239 243 244 247 245 244 250 255 250 253 266 275 278 278 280 283 283 282 281 280 282 279 272 268 268 271 273 273 271 269 267 265 265 265 267 267 265 263 262
129 134 143 151 157 162 167 171 164 153 152 159 161 162 162 160 157 161 165 167 167 164 164 171 179 182 190 203 206 197 192 195 201 206 210 212 215 218 219 215 211 219 247 273 274 258 252 257 258 259 262 263 267 273 269 267 273 277 278 279 281 283 283 282 282 284 285 284 278 272 270 274 278 278 277 276 273 271 270 268 269 270 270 271 271
107 115 119 128 143 155 164 170 164 153 153 153 151 154 154 147 145 153 163 166 168 168 169 172 177 179 183 189 194 197 203 205 203 204 208 212 218 225 225 223 230 247 266 290 294 283 281 289 284 271 270 274 276 276 274 275 276 275 276 278 280 282 283 282 281 281 279 275 273 273 274 276 278 278 278 277 275 273 270 268 268 269 271 272 273
105 107 105 105 119 134 146 154 153 151 152 152 155 163 167 169 177 183 180 180 185 190 196 200 199 194 189 186 188 200 211 214 212 211 211 213 219 226 231 235 240 245 261 285 291 285 281 282 279 273 272 274 275 276 278 279 278 275 274 275 278 283 285 282 278 277 275 272 271 272 274 276 276 276 275 274 274 273 271 271 271 271 270 271 273
104 105 106 110 118 122 127 134 138 143 148 151 159 167 172 183 196 200 187 182 189 198 207 211 207 205 203 198 197 206 218 226 227 223 220 223 231 240 246 249 250 253 263 273 272 263 260 262 266 272 274 274 276 278 280 280 277 273 270 269 271 273 275 275 275 276 276 276 276 275 275 275 274 274 273 272 271 271 272 273 274 274 274 273 272
102 105 108 113 117 120 121 120 121 126 134 142 149 153 155 164 173 169 156 158 168 182 196 206 207 207 209 208 206 210 217 227 234 236 240 248 254 258 259 257 254 255 258 257 249 249 258 264 269 275 276 277 278 278 277 275 272 270 272 274 274 272 271 270 270 271 273 273 274 274 273 274 274 275 277 276 274 273 274 276 277 279 282 281 277
95 99 105 110 114 118 120 119 118 119 121 122 126 133 137 138 139 144 148 148 151 159 170 183 194 199 203 205 205 204 208 216 227 236 244 249 252 253 253 251 248 248 250 252 253 257 264 269 272 275 275 275 274 275 275 274 273 274 275 277 278 277 276 274 273 274 276 275 275 274 273 273 274 277 279 280 279 278 279 281 281 283 286 286 281
90 89 90 97 105 110 114 119 122 122 121 120 122 127 131 134 138 142 143 144 148 152 158 170 180 186 192 198 201 204 209 215 221 226 234 239 240 242 244 244 245 247 250 256 261 264 267 270 271 273 274 276 278 280 281 280 280 280 279 279 280 280 280 280 280 281 281 280 279 278 277 276 276 275 275 276 277 277 278 279 280 280 282 282 279
86 87 84 84 93 101 105 110 115 117 117 119 125 130 132 133 134 129 120 117 123 128 136 147 154 166 187 204 212 215 221 235 242 240 240 240 240 242 248 251 253 256 259 263 267 271 273 275 278 281 283 286 288 287 286 285 284 284 282 281 281 282 282 284 286 287 286 285 283 281 280 279 278 276 275 274 274 276 277 275 275 276 277 278 276
88 92 86 79 81 93 103 107 111 115 115 116 121 123 116 110 112 112 103 91 83 84 87 85 75 64 52 12 286 269 269 269 261 257 259 261 262 264 267 270 272 271 269 268 269 271 275 280 285 287 288 288 289 289 289 290 289 288 287 286 285 285 287 289 292 294 294 294 293 291 291 291 289 287 285 282 278 275 274 272 272 273 274 272 269
90 97 96 88 82 84 93 99 100 102 106 108 107 107 102 95 94 99 102 102 97 89 87 92 97 97 94 90 327 328 337 312 264 256 269 280 281 282 282 283 285 285 281 281 281 281 283 285 286 287 288 289 291 293 294 295 296 296 297 296 296 298 301 304 308 311 312 312 309 307 307 306 301 295 289 286 281 276 273 272 272 273 272 268 270
72 76 82 86 86 89 99 106 104 103 108 110 109 114 124 128 127 124 122 122 116 108 107 112 114 117 121 120 104 34 311 276 273 295 333 327 315 311 304 299 299 296 293 295 299 298 298 297 297 299 301 300 301 301 302 306 314 322 327 329 331 333 332 330 328 326 324 319 311 302 292 285 284 288 290 289 287 283 280 278 276 275 273 272 279
59 62 62 62 64 71 83 94 100 103 111 119 124 131 142 149 149 147 143 140 136 139 145 143 137 135 132 121 113 183 209 240 276 306 325 327 327 327 321 318 316 311 312 319 319 317 321 324 323 323 328 339 347 349 352 358 359 0 3 360 353 348 340 336 331 317 300 297 298 294 287 283 287 297 302 300 297 292 286 285 283 280 276 276 284
46 52 54 51 48 52 59 66 72 74 75 88 106 101 94 109 127 137 148 156 162 169 173 169 168 169 160 150 159 206 221 234 261 282 299 314 321 324 325 327 327 325 333 343 342 346 358 3 4 13 17 16 13 9 8 6 359 358 1 351 343 344 345 343 333 299 275 281 290 295 299 303 304 305 303 300 299 294 287 283 281 278 277 280 287
33 45 60 60 51 45 46 49 51 54 59 65 71 72 74 81 92 105 120 135 153 173 187 188 194 206 207 192 196 219 237 245 260 277 291 304 316 330 336 336 339 343 351 1 4 11 22 25 25 28 25 18 10 3 1 357 345 338 331 318 315 321 325 326 313 289 281 290 298 301 306 312 312 306 295 289 288 285 283 280 276 275 278 282 282
24 36 66 78 67 54 50 50 43 37 42 50 54 57 61 64 67 76 86 90 92 99 107 131 169 196 221 211 211 229 249 262 274 291 311 326 338 347 348 348 352 350 349 354 3 20 40 36 27 24 22 11 353 337 332 339 344 337 322 316 320 317 305 299 297 294 295 297 299 300 304 311 314 308 288 274 275 280 287 288 283 278 276 271 264
41 41 56 67 65 61 62 65 61 48 37 34 34 40 47 51 52 54 59 63 64 64 69 75 77 79 85 103 160 211 253 309 333 347 355 355 354 352 348 349 350 350 356 13 34 50 50 39 24 18 18 4 339 315 299 297 303 310 317 327 334 324 311 301 295 296 300 302 302 303 306 311 316 311 288 271 273 278 280 280 276 270 261 253 245
70 71 70 65 61 60 60 63 65 64 62 47 19 15 32 42 45 47 48 49 52 51 52 57 54 49 50 57 59 62 62 52 41 35 22 4 351 349 352 353 352 356 12 50 82 71 55 41 23 18 13 351 330 316 305 299 299 304 318 329 333 326 318 308 298 296 302 306 307 309 311 312 314 310 292 276 274 271 267 265 264 257 248 242 235
43 74 97 82 65 52 50 59 58 51 64 75 60 45 42 36 36 47 52 51 53 52 46 42 40 36 38 46 50 54 64 64 52 42 29 15 4 358 1 7 8 7 12 350 211 96 85 202 207 226 265 289 318 324 318 314 319 324 321 313 307 308 311 308 302 301 303 304 306 312 316 315 312 310 302 289 278 271 265 265 263 254 247 243 240
31 52 78 79 66 47 40 62 71 55 53 67 62 61 74 55 32 33 41 41 49 56 46 31 24 22 26 33 40 49 56 59 61 57 48 38 26 13 10 18 19 12 359 339 311 268 236 228 228 240 250 255 274 306 318 324 327 324 313 299 290 288 293 297 298 299 301 305 311 318 320 316 315 317 311 295 282 274 271 269 264 254 246 240 237
23 36 46 51 51 46 30 30 117 120 100 83 68 61 79 78 57 38 29 14 14 43 45 32 21 19 25 31 36 46 51 51 57 60 52 45 39 26 16 20 21 12 2 2 5 349 282 275 269 273 278 276 273 287 315 321 314 311 309 299 289 286 290 294 298 301 305 313 323 328 328 332 347 1 338 296 280 268 264 278 297 297 299 301 94
35 38 44 38 33 39 18 355 336 157 137 111 91 78 66 59 60 75 83 71 34 24 33 25 16 18 30 32 27 32 44 51 57 57 48 44 46 36 24 25 25 17 11 18 28 28 4 356 0 353 343 348 351 347 351 337 318 308 301 298 301 308 312 309 307 311 319 333 350 7 42 73 83 87 79 64 63 58 51 52 50 44 39 42 61
21 359 2 4 0 53 25 6 29 127 120 97 76 68 69 55 31 23 90 130 118 85 55 45 35 36 42 37 26 23 26 31 42 50 43 38 37 30 29 37 37 30 28 29 33 31 21 20 25 20 5 4 3 360 5 347 316 306 301 304 318 340 352 349 337 334 349 20 61 96 102 99 100 96 77 62 57 45 44 58 56 46 44 51 60
316 333 351 354 350 149 77 17 104 114 74 38 44 114 115 106 43 18 54 108 109 94 87 105 119 68 54 59 50 33 14 1 13 35 36 34 38 39 42 47 45 42 40 35 30 28 23 19 17 8 2 9 7 352 341 330 321 322 329 337 350 10 25 30 26 19 33 79 107 108 95 86 98 92 57 52 62 60 59 62 50 35 36 48 47
321 343 4 8 21 146 103 32 161 70 25 12 90 126 114 100 74 85 93 94 94 84 71 61 268 273 161 133 113 79 13 337 345 19 37 37 41 47 52 53 50 47 46 42 38 35 27 20 17 19 24 33 29 6 358 3 6 16 29 30 26 31 40 46 44 36 44 84 85 62 34 17 23 39 55 67 71 64 50 38 27 27 37 42 25
328 334 2 11 17 117 107 54 50 24 28 63 88 100 119 105 78 87 116 124 120 99 43 350 344 71 116 128 121 104 18 325 336 19 52 49 47 51 53 50 47 47 46 44 43 41 35 30 33 41 51 59 59 50 47 49 51 54 54 49 44 44 45 44 40 36 36 39 25 15 17 30 51 75 81 70 57 44 32 29 31 36 37 28 17
329 323 343 5 20 41 54 40 12 336 309 117 96 97 134 129 94 81 105 132 141 113 335 340 41 74 82 82 71 43 345 331 354 46 58 48 43 47 50 44 41 43 47 47 45 44 40 37 39 45 56 71 83 80 69 66 70 72 68 62 59 57 52 48 45 39 33 30 27 32 47 58 69 81 75 52 35 28 31 40 43 32 2 343 357
326 323 332 353 9 18 19 8 357 344 214 169 155 138 132 150 182 129 116 120 133 128 85 40 44 44 40 42 46 35 13 11 32 60 69 61 49 49 55 52 44 43 46 46 45 45 43 40 39 43 50 64 82 90 86 84 85 83 77 70 65 56 48 44 43 38 35 35 35 44 57 62 63 69 60 40 26 15 7 42 52 44 35 29 28
309 317 324 339 345 337 317 334 359 50 160 180 199 196 173 144 228 179 157 161 171 164 149 130 86 30 23 33 48 54 44 39 44 50 62 74 71 61 58 56 49 45 45 45 43 45 47 46 44 46 51 60 71 79 83 86 88 83 70 60 56 46 40 42 40 37 41 44 38 40 57 61 53 59 69 49 31 17 16 78 76 53 45 38 12
266 295 304 313 320 313 274 197 246 273 273 270 249 215 181 151 168 196 185 181 188 193 179 142 118 87 46 44 51 55 56 61 61 48 39 49 62 61 54 50 46 45 45 43 41 42 45 48 49 51 56 67 77 81 77 72 72 69 59 57 64 59 50 45 35 32 42 50 44 40 43 37 23 34 74 47 20 360 5 17 6 28 29 10 337
216 265 300 300 308 319 311 233 253 281 296 297 254 201 181 186 203 202 193 186 185 182 161 136 125 119 108 90 75 60 49 54 66 62 43 38 47 53 46 40 39 40 41 41 39 35 36 42 48 50 53 61 72 79 76 62 54 61 60 44 31 21 20 42 58 59 60 58 45 30 18 16 15 23 57 32 12 359 0 7 1 18 37 17 357
221 231 280 292 296 313 320 297 292 319 345 33 177 192 205 215 210 202 202 197 184 167 153 149 140 122 110 99 86 83 73 45 33 33 30 30 40 48 41 34 37 39 39 39 37 32 30 35 42 47 51 58 68 80 86 80 76 83 66 31 16 12 7 27 68 79 77 65 50 25 6 21 30 29 21 18 18 19 21 15 6 3 14 14 3
233 219 243 270 274 283 292 276 276 302 324 290 200 202 205 202 199 206 215 205 185 170 159 154 145 129 121 112 90 84 78 50 30 18 3 4 23 39 36 31 39 45 43 40 38 35 31 32 36 41 46 52 62 73 76 62 38 33 19 4 5 12 8 11 42 72 76 70 68 59 2 38 54 43 13 2 6 22 26 17 11 6 3 2 359
235 225 230 254 263 269 269 258 253 257 272 254 215 206 204 197 192 207 228 217 178 164 156 155 156 145 131 123 108 87 69 60 57 22 333 342 14 43 46 38 40 44 43 42 41 40 39 36 35 35 34 31 26 20 14 12 12 13 14 15 21 32 43 57 71 83 83 79 95 123 51 318 251 54 17 6 3 13 5 348 340 346 357 357 354
238 231 227 241 250 249 253 257 255 257 272 270 208 175 193 203 201 205 212 192 168 164 164 167 165 149 131 122 106 77 62 69 80 332 303 320 359 36 46 46 46 44 44 43 41 43 47 47 45 45 44 41 39 36 33 36 38 38 40 46 48 50 58 68 74 79 70 44 25 21 17 334 264 242 301 332 329 320 304 300 299 288 274 10 17
240 231 220 228 245 248 248 250 260 270 269 253 154 139 172 207 212 215 210 188 179 182 180 174 167 154 144 137 111 84 71 79 95 276 288 300 324 10 36 43 46 45 46 45 40 41 47 52 53 55 54 52 51 51 50 50 50 49 49 52 52 50 51 53 51 45 38 15 352 347 347 334 309 301 295 282 282 282 276 281 298 303 291 334 48
240 231 222 224 239 249 249 246 253 260 254 231 218 229 230 197 191 207 214 205 200 200 188 180 180 176 166 160 159 171 175 158 146 262 281 293 304 320 11 33 35 34 37 41 41 41 42 42 43 46 46 44 43 42 39 36 35 34 31 30 31 30 25 15 3 351 341 333 333 335 331 322 317 320 318 309 303 298 285 281 290 295 287 234 37
Height
1493 1494 1495 1496 1497 1499 1500 1502 1504 1507 1509 1511 1513 1516 1518 1520 1522 1524 1526 1527 1529 1530 1532 1534 1535 1536 1537 1538 1539 1540 1541 1543 1545 1546 1547 1549 1550 1551 1552 1553 1553 1553 1553 1554 1554 1555 1557 1558 1560 1561 1562 1563 1564 1565 1566 1568 1569 1570 1570 1571 1572 1573 1573 1573 1573 1575 1576 1577 1577 1578 1578 1579 1579 1579 1579 1580 1580 1581 1581 1581 1582 1582 1582 1582 1582
1494 1496 1497 1498 1498 1499 1501 1502 1504 1506 1508 1511 1513 1515 1518 1520 1522 1524 1525 1527 1529 1530 1532 1534 1535 1536 1537 1538 1539 1540 1541 1543 1545 1547 1548 1549 1550 1552 1553 1554 1554 1554 1554 1554 1554 1555 1556 1558 1559 1561 1562 1563 1564 1565 1566 1568 1569 1569 1570 1571 1572 1573 1573 1573 1573 1575 1576 1577 1578 1578 1578 1579 1580 1579 1579 1580 1580 1580 1580 1580 1581 1581 1582 1582 1582
1494 1497 1498 1497 1498 1499 1501 1503 1505 1507 1508 1511 1513 1515 1517 1519 1521 1523 1525 1527 1528 1531 1532 1534 1535 1536 1537 1538 1539 1540 1542 1543 1545 1547 1548 1549 1550 1552 1553 1554 1554 1554 1555 1555 1555 1556 1556 1557 1559 1560 1562 1563 1564 1565 1566 1567 1569 1569 1570 1571 1572 1573 1574 1573 1573 1574 1575 1576 1578 1578 1578 1579 1580 1580 1579 1580 1581 1580 1580 1580 1581 1581 1581 1581 1581
1493 1497 1497 1496 1497 1499 1501 1503 1505 1507 1508 1510 1513 1515 1516 1518 1520 1523 1525 1527 1529 1531 1532 1533 1535 1536 1537 1538 1539 1540 1542 1544 1545 1547 1548 1549 1551 1552 1553 1553 1554 1555 1555 1556 1556 1556 1557 1558 1560 1561 1562 1563 1565 1566 1566 1567 1569 1569 1570 1571 1572 1573 1573 1574 1574 1574 1575 1576 1578 1578 1578 1579 1580 1580 1579 1579 1580 1581 1580 1579 1580 1581 1581 1580 1579
1491 1494 1495 1494 1496 1498 1501 1502 1504 1506 1508 1510 1512 1514 1516 1517 1520 1523 1525 1527 1529 1531 1532 1534 1535 1536 1538 1539 1540 1541 1542 1544 1545 1547 1548 1549 1551 1552 1553 1554 1555 1555 1556 1556 1557 1557 1558 1559 1560 1561 1563 1564 1565 1566 1567 1567 1569 1570 1571 1571 1572 1572 1573 1574 1574 1575 1575 1576 1577 1578 1578 1578 1580 1580 1579 1578 1579 1580 1580 1579 1579 1579 1580 1579 1578
1490 1492 1493 1496 1497 1498 1499 1501 1504 1506 1508 1510 1512 1514 1515 1517 1520 1523 1525 1527 1528 1530 1532 1534 1535 1537 1538 1539 1540 1542 1543 1544 1546 1547 1548 1549 1551 1552 1553 1554 1555 1556 1556 1556 1557 1558 1558 1559 1560 1562 1563 1564 1565 1566 1567 1568 1569 1570 1571 1571 1571 1572 1573 1574 1574 1575 1576 1576 1577 1578 1578 1578 1579 1579 1579 1578 1577 1578 1579 1579 1579 1578 1578 1578 1578
1488 1490 1493 1497 1498 1498 1499 1502 1504 1507 1509 1511 1512 1513 1515 1518 1520 1523 1525 1526 1528 1530 1532 1534 1535 1537 1538 1540 1541 1542 1543 1545 1546 1547 1548 1550 1551 1552 1553 1554 1555 1556 1557 1557 1557 1558 1559 1560 1561 1562 1563 1564 1565 1567 1567 1567 1568 1569 1570 1571 1571 1572 1573 1574 1574 1575 1575 1576 1576 1577 1577 1578 1577 1578 1579 1579 1577 1576 1576 1577 1577 1578 1577 1577 1576
1487 1489 1492 1496 1497 1498 1501 1503 1505 1508 1509 1511 1512 1513 1516 1518 1520 1522 1524 1526 1528 1530 1532 1534 1535 1537 1539 1540 1541 1542 1543 1544 1545 1547 1548 1550 1551 1552 1553 1554 1555 1556 1557 1557 1558 1559 1560 1561 1561 1562 1563 1564 1565 1566 1566 1567 1568 1569 1570 1571 1572 1572 1573 1574 1574 1575 1575 1575 1576 1576 1576 1577 1577 1577 1577 1578 1577 1576 1576 1575 1575 1576 1576 1575 1574
1486 1489 1492 1494 1497 1499 1502 1504 1506 1507 1509 1511 1513 1514 1517 1519 1521 1522 1524 1526 1528 1530 1532 1534 1535 1538 1539 1540 1540 1541 1542 1544 1545 1547 1549 1550 1551 1552 1553 1554 1555 1556 1557 1557 1558 1559 1560 1560 1561 1562 1563 1564 1565 1566 1567 1568 1569 1569 1570 1571 1571 1572 1573 1573 1574 1574 1574 1574 1575 1575 1575 1576 1576 1576 1576 1576 1576 1576 1576 1575 1574 1574 1575 1574 1573
1487 1489 1492 1494 1496 1499 1502 1503 1505 1507 1508 1511 1514 1515 1518 1520 1521 1523 1525 1526 1528 1530 1532 1534 1536 1537 1538 1538 1539 1541 1542 1544 1545 1547 1549 1550 1551 1552 1553 1554 1555 1556 1557 1557 1558 1559 1560 1560 1561 1562 1563 1564 1565 1566 1567 1568 1569 1569 1570 1570 1571 1571 1572 1572 1572 1573 1573 1573 1574 1574 1574 1574 1574 1575 1575 1575 1575 1575 1575 1575 1574 1574 1573 1573 1572
1488 1490 1491 1494 1497 1499 1501 1503 1505 1507 1509 1512 1515 1517 1519 1520 1522 1523 1525 1527 1529 1530 1532 1533 1534 1535 1536 1538 1540 1541 1543 1544 1546 1547 1549 1550 1551 1552 1553 1555 1555 1556 1557 1557 1558 1559 1560 1560 1561 1562 1563 1564 1565 1566 1567 1568 1568 1569 1569 1569 1570 1570 1571 1571 1571 1571 1571 1572 1572 1572 1572 1573 1573 1573 1573 1573 1573 1573 1572 1572 1572 1572 1572 1571 1571
1489 1490 1492 1495 1497 1500 1502 1503 1506 1508 1511 1514 1516 1517 1518 1520 1521 1523 1525 1527 1528 1529 1530 1532 1533 1535 1536 1538 1540 1541 1543 1544 1546 1547 1549 1550 1551 1552 1553 1554 1555 1556 1557 1558 1559 1559 1560 1560 1560 1561 1562 1563 1564 1565 1566 1567 1567 1568 1568 1568 1568 1569 1569 1570 1570 1570 1570 1570 1571 1571 1571 1571 1571 1571 1571 1571 1571 1570 1570 1570 1570 1569 1569 1569 1568
1490 1491 1493 1496 1498 1500 1502 1504 1507 1509 1511 1513 1514 1515 1516 1518 1519 1521 1523 1525 1525 1527 1530 1531 1533 1535 1536 1538 1540 1541 1543 1544 1545 1547 1548 1550 1551 1551 1552 1553 1554 1556 1557 1558 1559 1559 1560 1560 1560 1559 1560 1561 1563 1564 1564 1565 1566 1566 1566 1567 1567 1567 1567 1568 1568 1568 1568 1569 1569 1569 1569 1569 1569 1569 1569 1568 1568 1568 1567 1567 1567 1566 1566 1566 1565
1491 1492 1493 1495 1498 1500 1502 1504 1506 1507 1508 1510 1511 1513 1515 1517 1519 1521 1523 1524 1526 1528 1530 1531 1533 1535 1536 1538 1540 1541 1543 1544 1545 1547 1548 1549 1550 1551 1551 1552 1553 1554 1555 1557 1558 1558 1559 1559 1558 1558 1559 1561 1562 1563 1563 1564 1564 1565 1565 1565 1566 1566 1566 1566 1566 1566 1567 1567 1567 1566 1566 1567 1567 1566 1566 1566 1566 1565 1565 1564 1564 1564 1563 1563 1562
1491 1492 1493 1495 1497 1499 1502 1503 1505 1505 1507 1509 1510 1512 1515 1517 1519 1522 1524 1525 1527 1529 1530 1531 1533 1535 1537 1539 1540 1542 1543 1544 1545 1546 1548 1549 1550 1550 1551 1551 1552 1553 1553 1554 1555 1555 1556 1557 1556 1557 1558 1559 1560 1561 1562 1563 1563 1563 1564 1564 1564 1564 1564 1564 1564 1564 1564 1564 1564 1564 1563 1564 1564 1563 1564 1564 1564 1563 1563 1562 1562 1561 1561 1560 1559
1493 1494 1494 1495 1497 1499 1501 1503 1505 1506 1507 1509 1510 1512 1515 1517 1519 1522 1524 1526 1527 1529 1530 1531 1533 1535 1537 1539 1540 1542 1543 1543 1544 1546 1547 1548 1549 1549 1550 1551 1551 1551 1552 1553 1554 1555 1556 1555 1555 1556 1558 1558 1558 1559 1560 1561 1562 1562 1562 1562 1561 1561 1561 1562 1561 1561 1561 1561 1561 1561 1561 1560 1560 1560 1561 1561 1560 1560 1560 1559 1559 1559 1558 1557 1556
1497 1497 1497 1498 1498 1499 1501 1503 1505 1507 1508 1509 1510 1513 1516 1518 1520 1522 1524 1526 1528 1529 1530 1531 1533 1535 1537 1538 1540 1541 1542 1543 1544 1545 1546 1547 1548 1548 1549 1550 1550 1550 1551 1552 1554 1555 1556 1556 1555 1555 1556 1557 1557 1557 1558 1559 1559 1560 1559 1559 1558 1558 1558 1559 1558 1558 1558 1558 1558 1558 1558 1557 1558 1558 1558 1557 1557 1556 1556 1555 1555 1556 1555 1553 1552
1499 1500 1501 1502 1502 1503 1503 1504 1506 1508 1509 1510 1511 1513 1515 1518 1521 1523 1524 1526 1527 1528 1530 1531 1533 1534 1536 1538 1540 1541 1542 1542 1543 1544 1545 1546 1547 1547 1548 1548 1548 1549 1550 1551 1553 1553 1555 1555 1555 1555 1555 1555 1555 1555 1556 1556 1556 1557 1557 1556 1556 1555 1555 1555 1555 1555 1556 1555 1555 1555 1555 1555 1555 1554 1554 1554 1553 1553 1552 1551 1552 1552 1551 1550 1549
1502 1503 1504 1504 1505 1506 1506 1507 1508 1509 1510 1512 1513 1514 1516 1519 1521 1523 1524 1525 1527 1528 1529 1530 1532 1534 1535 1537 1539 1540 1541 1541 1542 1543 1544 1545 1546 1546 1546 1546 1547 1548 1549 1551 1553 1552 1553 1554 1554 1554 1554 1554 1553 1553 1553 1554 1554 1554 1554 1554 1554 1553 1553 1553 1553 1553 1553 1553 1553 1553 1552 1552 1552 1552 1551 1551 1550 1549 1549 1548 1548 1548 1547 1546 1546
1505 1505 1506 1506 1507 1508 1508 1509 1510 1511 1512 1514 1515 1516 1518 1520 1522 1523 1524 1526 1527 1528 1529 1531 1532 1534 1535 1537 1538 1539 1540 1540 1541 1542 1543 1543 1544 1544 1544 1545 1546 1547 1548 1551 1552 1551 1551 1551 1552 1552 1552 1551 1551 1551 1551 1551 1551 1551 1551 1551 1551 1551 1550 1550 1551 1550 1550 1550 1550 1550 1550 1549 1549 1549 1548 1547 1546 1546 1545 1545 1545 1545 1544 1543 1543
1508 1508 1508 1508 1509 1510 1510 1511 1512 1513 1514 1516 1517 1518 1520 1521 1523 1524 1525 1526 1527 1529 1530 1531 1533 1534 1535 1537 1537 1538 1539 1540 1540 1541 1541 1541 1542 1542 1543 1543 1544 1546 1547 1549 1550 1550 1549 1548 1549 1549 1548 1548 1548 1548 1548 1549 1548 1549 1549 1548 1548 1547 1547 1547 1548 1548 1547 1547 1547 1547 1547 1546 1546 1545 1545 1544 1543 1542 1541 1541 1541 1541 1541 1540 1539
1511 1511 1511 1511 1511 1512 1513 1514 1514 1515 1516 1517 1519 1520 1521 1522 1524 1525 1526 1527 1528 1529 1530 1532 1533 1534 1535 1536 1537 1538 1538 1539 1539 1539 1539 1539 1540 1540 1541 1542 1543 1544 1545 1546 1547 1547 1546 1545 1546 1546 1545 1545 1546 1546 1546 1546 1545 1545 1545 1545 1544 1544 1543 1543 1543 1544 1544 1543 1543 1542 1542 1543 1543 1542 1542 1541 1540 1538 1538 1537 1537 1537 1537 1537 1536
1514 1513 1514 1515 1515 1515 1516 1517 1517 1518 1519 1520 1521 1522 1523 1524 1525 1526 1527 1528 1529 1530 1531 1532 1533 1534 1535 1535 1536 1537 1537 1537 1538 1538 1538 1538 1539 1539 1540 1541 1542 1543 1543 1544 1544 1543 1543 1542 1543 1543 1543 1543 1543 1542 1542 1542 1542 1542 1542 1541 1541 1540 1540 1539 1539 1539 1539 1539 1539 1538 1538 1539 1538 1537 1537 1537 1536 1535 1534 1533 1533 1532 1533 1533 1532
1518 1518 1518 1519 1519 1519 1519 1520 1520 1521 1521 1522 1523 1524 1524 1525 1526 1526 1527 1529 1530 1531 1531 1532 1534 1534 1535 1535 1536 1536 1536 1537 1537 1536 1537 1537 1538 1538 1539 1539 1540 1541 1541 1541 1541 1541 1541 1540 1541 1541 1540 1540 1539 1539 1539 1539 1538 1538 1538 1538 1537 1537 1537 1536 1536 1535 1535 1535 1534 1534 1534 1535 1534 1533 1533 1533 1533 1532 1531 1529 1528 1528 1529 1528 1528
1522 1522 1522 1522 1521 1522 1522 1522 1523 1523 1523 1524 1524 1525 1526 1526 1527 1528 1529 1530 1532 1532 1533 1534 1535 1536 1537 1537 1536 1535 1535 1535 1535 1535 1536 1536 1537 1537 1537 1537 1538 1538 1538 1539 1539 1539 1539 1539 1539 1538 1537 1537 1537 1536 1536 1536 1535 1535 1535 1535 1535 1534 1534 1534 1534 1533 1533 1532 1532 1532 1532 1532 1531 1530 1529 1529 1529 1528 1527 1526 1525 1525 1525 1524 1523
1525 1525 1525 1525 1524 1524 1524 1524 1524 1524 1525 1525 1525 1526 1526 1526 1527 1528 1529 1530 1532 1533 1534 1535 1536 1537 1537 1538 1537 1536 1535 1533 1533 1534 1536 1536 1536 1536 1536 1536 1537 1536 1536 1537 1537 1537 1537 1537 1536 1536 1535 1535 1535 1534 1534 1534 1533 1533 1533 1533 1533 1533 1533 1533 1532 1531 1531 1531 1531 1531 1531 1529 1528 1527 1526 1526 1526 1525 1524 1523 1523 1523 1523 1522 1522
1527 1527 1527 1527 1527 1526 1526 1526 1525 1525 1525 1525 1525 1525 1525 1526 1527 1528 1528 1529 1530 1531 1532 1533 1534 1535 1536 1537 1537 1536 1535 1533 1533 1535 1535 1535 1535 1535 1535 1535 1535 1535 1535 1536 1535 1535 1535 1535 1534 1534 1533 1533 1533 1533 1532 1532 1532 1532 1532 1532 1532 1532 1532 1531 1531 1530 1530 1529 1529 1528 1528 1527 1526 1525 1524 1523 1523 1522 1522 1521 1521 1521 1521 1521 1521
1529 1528 1529 1529 1529 1529 1528 1528 1528 1528 1527 1527 1527 1526 1527 1527 1528 1529 1529 1530 1530 1531 1532 1533 1533 1533 1534 1535 1535 1534 1534 1535 1534 1535 1535 1535 1535 1535 1534 1534 1534 1534 1534 1534 1534 1534 1534 1533 1533 1533 1532 1532 1532 1532 1532 1532 1532 1532 1531 1531 1531 1531 1531 1530 1530 1529 1528 1527 1526 1525 1525 1525 1525 1524 1523 1521 1521 1521 1520 1520 1519 1519 1519 1519 1519
1531 1530 1531 1531 1531 1532 1531 1531 1530 1530 1530 1529 1529 1528 1529 1529 1529 1529 1530 1530 1531 1532 1532 1533 1533 1533 1534 1534 1533 1533 1534 1534 1534 1534 1535 1534 1534 1534 1533 1533 1533 1533 1533 1533 1533 1533 1533 1533 1533 1532 1532 1532 1533 1532 1532 1532 1531 1531 1531 1530 1530 1530 1530 1530 1529 1527 1526 1525 1524 1523 1523 1523 1523 1523 1522 1520 1518 1519 1519 1518 1518 1518 1518 1517 1517
1533 1533 1533 1533 1533 1534 1534 1534 1533 1533 1532 1532 1531 1531 1531 1531 1530 1531 1531 1531 1532 1532 1532 1532 1533 1533 1533 1534 1533 1533 1534 1534 1534 1534 1533 1533 1533 1533 1533 1533 1532 1533 1533 1533 1533 1533 1533 1533 1533 1533 1533 1534 1533 1532 1531 1531 1530 1530 1529 1529 1529 1529 1528 1528 1527 1525 1523 1523 1522 1522 1522 1521 1521 1521 1520 1518 1517 1516 1517 1517 1517 1516 1516 1516 1516
1535 1535 1535 1535 1535 1535 1536 1536 1536 1536 1535 1534 1534 1533 1533 1532 1532 1532 1532 1532 1533 1533 1533 1533 1533 1533 1533 1533 1533 1533 1533 1533 1533 1533 1533 1533 1533 1533 1532 1532 1532 1533 1533 1533 1533 1533 1533 1533 1534 1534 1534 1534 1532 1530 1530 1530 1529 1529 1528 1528 1528 1527 1526 1525 1525 1524 1522 1521 1521 1520 1520 1520 1519 1518 1518 1517 1516 1515 1515 1515 1515 1515 1515 1515 1515
1536 1536 1536 1536 1536 1537 1537 1537 1537 1537 1537 1536 1536 1535 1534 1534 1534 1534 1534 1534 1534 1534 1534 1534 1534 1534 1533 1533 1533 1533 1533 1533 1533 1534 1533 1533 1533 1533 1533 1532 1532 1532 1532 1532 1532 1532 1532 1532 1533 1533 1532 1531 1530 1528 1528 1529 1528 1528 1527 1527 1527 1526 1525 1523 1522 1522 1522 1520 1520 1519 1518 1517 1516 1516 1516 1516 1515 1515 1515 1514 1514 1515 1515 1515 1515
1537 1537 1537 1537 1537 1537 1538 1537 1538 1538 1538 1537 1537 1536 1536 1535 1535 1535 1536 1535 1535 1536 1536 1535 1535 1535 1535 1534 1534 1534 1534 1534 1534 1534 1534 1534 1533 1533 1533 1532 1532 1532 1532 1531 1531 1531 1530 1531 1531 1530 1530 1529 1528 1528 1528 1528 1527 1527 1527 1526 1526 1525 1523 1521 1521 1521 1521 1519 1518 1518 1517 1516 1515 1514 1514 1514 1514 1514 1514 1514 1514 1514 1514 1515 1515
1538 1538 1538 1537 1538 1538 1538 1538 1538 1538 1538 1538 1538 1537 1537 1537 1537 1537 1537 1537 1536 1536 1536 1536 1536 1536 1535 1535 1535 1535 1534 1534 1534 1534 1534 1534 1533 1533 1533 1532 1532 1531 1531 1531 1530 1530 1529 1529 1529 1528 1528 1528 1527 1527 1527 1527 1527 1527 1526 1525 1524 1524 1522 1520 1520 1519 1519 1518 1517 1516 1515 1515 1514 1514 1514 1514 1514 1514 1514 1514 1514 1514 1514 1514 1514
1539 1539 1539 1538 1538 1538 1538 1537 1537 1537 1537 1537 1538 1538 1538 1538 1538 1538 1538 1537 1537 1537 1537 1537 1536 1536 1536 1536 1535 1535 1535 1534 1534 1534 1534 1534 1533 1533 1532 1532 1531 1531 1530 1530 1529 1529 1528 1528 1527 1527 1527 1526 1526 1526 1526 1526 1526 1526 1525 1523 1522 1522 1521 1520 1519 1518 1517 1517 1516 1515 1515 1515 1515 1514 1515 1515 1514 1514 1514 1514 1514 1514 1514 1514 1514
1540 1540 1539 1539 1539 1539 1538 1537 1537 1537 1537 1537 1538 1538 1538 1538 1539 1539 1538 1538 1538 1538 1537 1537 1537 1537 1537 1537 1536 1536 1535 1535 1534 1534 1534 1533 1533 1533 1532 1532 1531 1530 1530 1529 1528 1528 1527 1527 1526 1526 1525 1525 1525 1525 1526 1525 1525 1524 1523 1522 1521 1521 1520 1519 1518 1517 1517 1516 1516 1515 1515 1516 1516 1516 1516 1516 1516 1515 1515 1515 1515 1515 1515 1514 1515
1540 1540 1540 1540 1540 1539 1539 1538 1537 1537 1538 1538 1538 1538 1539 1539 1539 1538 1538 1538 1539 1539 1538 1538 1537 1537 1538 1538 1537 1536 1536 1535 1535 1534 1534 1533 1533 1532 1532 1531 1530 1530 1529 1528 1528 1527 1527 1526 1526 1525 1525 1525 1525 1525 1525 1524 1524 1523 1522 1521 1520 1520 1519 1518 1518 1518 1517 1517 1517 1516 1517 1517 1517 1517 1517 1517 1517 1517 1517 1517 1516 1516 1516 1516 1516
1540 1540 1540 1540 1539 1539 1539 1539 1539 1538 1539 1539 1538 1538 1539 1539 1539 1539 1539 1539 1540 1541 1539 1538 1537 1538 1538 1538 1538 1537 1537 1536 1535 1534 1534 1533 1533 1532 1531 1531 1530 1529 1528 1528 1527 1527 1526 1526 1525 1525 1525 1525 1525 1525 1524 1524 1523 1523 1522 1521 1521 1520 1519 1519 1518 1518 1518 1518 1518 1518 1518 1519 1518 1518 1518 1518 1518 1518 1518 1518 1518 1517 1517 1517 1517
1540 1540 1540 1539 1539 1539 1539 1539 1539 1539 1539 1539 1538 1538 1539 1539 1539 1539 1540 1540 1541 1540 1538 1537 1537 1537 1538 1538 1539 1538 1537 1536 1535 1535 1534 1533 1533 1532 1531 1531 1530 1529 1528 1528 1527 1527 1526 1526 1525 1525 1524 1524 1525 1525 1524 1524 1523 1523 1522 1521 1521 1521 1520 1520 1520 1519 1520 1520 1520 1520 1520 1520 1520 1520 1520 1519 1519 1519 1519 1519 1519 1518 1518 1518 1518
1540 1539 1539 1539 1538 1538 1538 1538 1538 1539 1538 1538 1538 1538 1539 1539 1539 1540 1540 1540 1540 1539 1538 1537 1537 1538 1538 1539 1539 1538 1537 1536 1535 1534 1534 1533 1533 1532 1532 1531 1530 1530 1529 1528 1527 1527 1526 1525 1525 1524 1524 1524 1525 1525 1524 1524 1524 1523 1523 1523 1522 1522 1521 1521 1521 1521 1522 1522 1522 1522 1522 1521 1521 1521 1521 1521 1520 1520 1520 1520 1520 1520 1520 1519 1519
1540 1539 1539 1539 1538 1538 1537 1538 1538 1538 1537 1537 1538 1538 1539 1539 1540 1540 1540 1540 1540 1539 1539 1538 1539 1539 1539 1539 1539 1538 1537 1536 1535 1534 1534 1534 1533 1533 1532 1532 1531 1530 1529 1528 1528 1527 1527 1526 1525 1525 1525 1525 1525 1525 1525 1525 1525 1525 1525 1524 1524 1524 1523 1523 1523 1523 1523 1523 1523 1523 1523 1523 1523 1523 1522 1522 1521 1521 1521 1521 1521 1520 1520 1520 1519
1540 1540 1539 1539 1539 1538 1538 1538 1538 1537 1537 1538 1538 1539 1539 1540 1540 1540 1540 1540 1540 1540 1540 1539 1539 1540 1540 1539 1539 1538 1537 1536 1535 1535 1535 1535 1534 1534 1533 1532 1531 1531 1530 1529 1528 1528 1527 1527 1526 1526 1526 1525 1525 1525 1526 1526 1526 1526 1526 1526 1525 1525 1525 1524 1524 1524 1524 1524 1524 1524 1524 1524 1524 1524 1523 1523 1523 1522 1522 1522 1521 1521 1520 1520 1519
1540 1540 1540 1540 1539 1539 1539 1539 1538 1537 1538 1538 1539 1539 1540 1540 1540 1540 1540 1540 1540 1540 1540 1540 1540 1540 1540 1540 1539 1538 1538 1537 1536 1536 1535 1535 1535 1534 1533 1533 1532 1531 1531 1530 1529 1529 1528 1528 1527 1527 1527 1527 1527 1527 1527 1527 1527 1528 1527 1527 1527 1527 1526 1526 1526 1526 1525 1525 1525 1525 1525 1525 1525 1525 1524 1524 1523 1523 1522 1522 1521 1521 1520 1520 1520
1539 1540 1540 1540 1540 1539 1539 1539 1538 1537 1538 1538 1538 1539 1540 1540 1540 1540 1540 1540 1540 1540 1540 1540 1541 1541 1541 1540 1540 1539 1539 1538 1538 1537 1536 1535 1534 1534 1533 1533 1533 1532 1532 1531 1531 1530 1530 1529 1529 1528 1528 1528 1528 1528 1529 1529 1529 1529 1528 1528 1528 1528 1528 1527 1527 1527 1526 1526 1526 1526 1526 1526 1525 1525 1525 1524 1524 1523 1522 1522 1522 1521 1521 1521 1520
1538 1539 1539 1540 1539 1539 1539 1538 1537 1537 1538 1538 1538 1539 1540 1540 1540 1540 1540 1540 1540 1540 1540 1541 1541 1541 1541 1541 1540 1540 1539 1538 1538 1537 1536 1535 1534 1534 1534 1533 1533 1533 1532 1532 1532 1531 1531 1531 1530 1530 1529 1529 1529 1529 1530 1530 1530 1530 1529 1529 1529 1529 1529 1528 1528 1528 1528 1527 1527 1527 1527 1526 1526 1526 1525 1525 1524 1524 1523 1523 1523 1522 1522 1521 1521
1537 1538 1539 1539 1539 1539 1539 1538 1536 1536 1537 1537 1538 1539 1539 1539 1540 1540 1540 1540 1540 1540 1540 1541 1541 1541 1541 1541 1540 1540 1540 1539 1538 1537 1536 1535 1535 1534 1534 1534 1534 1533 1533 1533 1532 1532 1532 1532 1531 1531 1531 1531 1531 1531 1531 1531 1531 1531 1530 1530 1530 1530 1529 1529 1528 1528 1528 1528 1528 1528 1527 1527 1526 1526 1526 1525 1525 1524 1524 1524 1523 1523 1522 1522 1522
1537 1537 1538 1538 1538 1538 1539 1538 1537 1536 1537 1537 1538 1538 1539 1539 1539 1539 1539 1540 1540 1540 1540 1541 1541 1541 1541 1541 1540 1540 1539 1539 1538 1537 1536 1536 1535 1535 1535 1534 1534 1534 1533 1533 1533 1533 1533 1532 1532 1532 1532 1532 1532 1532 1532 1532 1532 1531 1531 1531 1530 1530 1530 1529 1529 1528 1528 1528 1528 1528 1528 1527 1527 1527 1527 1526 1525 1525 1524 1524 1524 1523 1523 1522 1522
1536 1536 1537 1538 1538 1538 1538 1537 1537 1537 1537 1537 1537 1538 1538 1539 1539 1539 1539 1539 1539 1540 1540 1540 1541 1541 1540 1540 1540 1540 1539 1539 1539 1538 1536 1536 1536 1535 1535 1535 1534 1534 1534 1534 1534 1534 1533 1533 1533 1533 1533 1533 1533 1533 1532 1532 1532 1531 1531 1531 1530 1530 1530 1529 1529 1529 1529 1529 1528 1528 1528 1528 1528 1527 1527 1526 1525 1525 1524 1524 1523 1523 1523 1522 1522
1535 1535 1536 1537 1537 1537 1537 1537 1536 1536 1536 1536 1537 1537 1538 1538 1539 1539 1539 1539 1539 1539 1540 1540 1540 1540 1540 1540 1540 1539 1539 1539 1539 1538 1537 1536 1536 1536 1535 1535 1535 1535 1535 1535 1535 1535 1534 1534 1534 1534 1534 1534 1533 1533 1533 1533 1532 1532 1531 1531 1531 1530 1530 1530 1530 1530 1530 1529 1529 1528 1528 1528 1527 1527 1526 1526 1525 1524 1524 1523 1523 1522 1522 1522 1521
1534 1534 1535 1536 1536 1537 1537 1537 1537 1536 1535 1535 1535 1536 1537 1537 1538 1538 1538 1539 1539 1539 1539 1539 1540 1540 1540 1540 1540 1540 1539 1539 1539 1538 1537 1537 1536 1536 1536 1536 1536 1536 1536 1536 1536 1535 1535 1535 1535 1535 1534 1534 1534 1534 1533 1533 1533 1532 1532 1532 1531 1531 1531 1531 1531 1530 1530 1530 1529 1528 1528 1528 1527 1527 1526 1525 1524 1524 1523 1523 1522 1522 1521 1521 1521
1533 1533 1533 1534 1535 1536 1536 1536 1537 1536 1536 1535 1535 1535 1536 1536 1537 1538 1538 1538 1538 1539 1539 1539 1539 1539 1540 1540 1540 1540 1540 1539 1539 1538 1537 1537 1537 1537 1536 1536 1536 1536 1536 1536 1536 1536 1536 1536 1536 1535 1535 1535 1535 1534 1534 1534 1533 1533 1533 1532 1532 1532 1532 1531 1531 1531 1530 1530 1529 1528 1528 1527 1526 1526 1525 1524 1523 1523 1522 1521 1521 1521 1521 1520 1520